Tracking 31027 objects as of 19-Jul-2025
HD Live streaming from Space Station
objects crossing your sky now

FENGYUN 1C DEB

Track FENGYUN 1C DEB now!
10-day predictions


NORAD ID: 37476
Int'l Code: 1999-025EJW
Perigee: 855.1 km
Apogee: 2,604.9 km
Inclination: 99.0 °
Period: 120.9 minutes
Semi major axis: 8100 km
RCS: 0.002 m2 (small)
Launch date: May 10, 1999
Source: People's Republic of China (PRC)
Launch site: Taiyaun Space Center, China (TSC)

Note: This is SATELLITE DEBRIS
Your satellite tracking list
GALASSIA
Track 1 satellite(s)




NASA's NSSDC Master Catalog

Two Line Element Set (TLE):
1 37476U 99025EJW 25198.02629289  .00001953  00000-0  51275-2 0  9995
2 37476  98.9606 268.4642 1080039 154.5264 211.3321 11.90680876656733
Source of the keplerian elements: AFSPC